When you browse on this site, cookies collect data to enhance your experience and personalize the content and advertising you see.
Visit our Privacy Policy to learn more. By continuing to use the site, you agree to this use of cookies and data.
  • în România
  • Lista ţărilor
  • Pe 7 zile
  • Temperatura apei
  • Hartă satelitară
  • Meteo pe hartă
  • Widget-uri
  • user-avatar
    Intrare

    Meteo pe oră la Wzorki

    Astăzi, 19 Mai, Duminică

    Timp Temperatura Precipitaţii Vânt Presiune Umiditate
    00:00 +14°C° 0 mm 2 m/s 731 mmHg 92%
    01:00 +13°C° 0 mm 1 m/s 731 mmHg 93%
    02:00 +13°C° 0 mm 1 m/s 731 mmHg 93%
    03:00 +12°C° 0 mm 1 m/s 731 mmHg 94%
    04:00 +12°C° 0 mm 1 m/s 731 mmHg 94%
    05:00 +13°C° 0 mm 1 m/s 731 mmHg 90%
    06:00 +15°C° 0 mm 1 m/s 731 mmHg 87%
    07:00 +16°C° 0 mm 2 m/s 731 mmHg 84%
    08:00 +18°C° 0 mm 2 m/s 731 mmHg 78%
    09:00 +19°C° 0 mm 2 m/s 730 mmHg 73%
    10:00 +21°C° 0 mm 3 m/s 730 mmHg 68%
    11:00 +22°C° 0.1 mm 3 m/s 730 mmHg 66%
    12:00 +23°C° 0.1 mm 4 m/s 730 mmHg 64%
    13:00 +23°C° 0.1 mm 4 m/s 730 mmHg 61%
    14:00 +23°C° 0.7 mm 4 m/s 730 mmHg 63%
    15:00 +23°C° 0.7 mm 5 m/s 729 mmHg 65%
    16:00 +23°C° 0.7 mm 5 m/s 729 mmHg 67%
    17:00 +21°C° 0.3 mm 5 m/s 729 mmHg 72%
    18:00 +20°C° 0.3 mm 4 m/s 729 mmHg 77%
    19:00 +18°C° 0.3 mm 4 m/s 729 mmHg 82%
    20:00 +17°C° 0 mm 4 m/s 729 mmHg 84%
    21:00 +16°C° 0 mm 3 m/s 729 mmHg 87%
    22:00 +14°C° 0 mm 3 m/s 729 mmHg 89%
    23:00 +14°C° 0 mm 2 m/s 729 mmHg 90%

    Mâine, 20 Mai, Luni

    Timp Temperatura Precipitaţii Vânt Presiune Umiditate
    00:00 +14°C° 0 mm 2 m/s 728 mmHg 90%
    01:00 +13°C° 0 mm 2 m/s 728 mmHg 91%
    02:00 +13°C° 0 mm 2 m/s 728 mmHg 91%
    03:00 +13°C° 0 mm 2 m/s 728 mmHg 91%
    04:00 +13°C° 0 mm 2 m/s 727 mmHg 92%
    05:00 +14°C° 0 mm 3 m/s 727 mmHg 89%
    06:00 +15°C° 0 mm 4 m/s 728 mmHg 87%
    07:00 +17°C° 0 mm 5 m/s 728 mmHg 84%
    08:00 +19°C° 0 mm 5 m/s 728 mmHg 78%
    09:00 +21°C° 0 mm 5 m/s 728 mmHg 73%
    10:00 +22°C° 0 mm 5 m/s 728 mmHg 67%
    11:00 +23°C° 0.4 mm 5 m/s 728 mmHg 64%
    12:00 +25°C° 0.4 mm 4 m/s 729 mmHg 61%
    13:00 +25°C° 0.4 mm 4 m/s 729 mmHg 58%
    14:00 +25°C° 0.3 mm 4 m/s 729 mmHg 59%
    15:00 +25°C° 0.3 mm 4 m/s 729 mmHg 59%
    16:00 +25°C° 0.3 mm 3 m/s 729 mmHg 60%
    17:00 +22°C° 0.1 mm 3 m/s 729 mmHg 65%
    18:00 +20°C° 0.1 mm 3 m/s 729 mmHg 70%
    19:00 +18°C° 0.1 mm 3 m/s 729 mmHg 75%
    20:00 +17°C° 0 mm 2 m/s 729 mmHg 76%
    21:00 +16°C° 0 mm 2 m/s 729 mmHg 76%
    22:00 +15°C° 0 mm 2 m/s 729 mmHg 76%
    23:00 +15°C° 0 mm 2 m/s 729 mmHg 78%

    Poimâine, 21 Mai, Marţi

    Timp Temperatura Precipitaţii Vânt Presiune Umiditate
    00:00 +14°C° 0 mm 1 m/s 729 mmHg 79%
    01:00 +13°C° 0 mm 1 m/s 729 mmHg 80%
    02:00 +13°C° 0 mm 1 m/s 729 mmHg 81%
    03:00 +13°C° 0 mm 1 m/s 729 mmHg 81%
    04:00 +13°C° 0 mm 1 m/s 729 mmHg 81%
    05:00 +14°C° 0 mm 1 m/s 729 mmHg 79%
    06:00 +15°C° 0 mm 1 m/s 729 mmHg 76%
    07:00 +15°C° 0 mm 0 m/s 729 mmHg 74%
    08:00 +18°C° 0.1 mm 1 m/s 729 mmHg 73%
    09:00 +17°C° 0.1 mm 2 m/s 730 mmHg 72%
    10:00 +18°C° 0.1 mm 2 m/s 730 mmHg 71%
    11:00 +18°C° 0.2 mm 2 m/s 730 mmHg 71%
    12:00 +18°C° 0.2 mm 3 m/s 730 mmHg 70%
    13:00 +18°C° 0.2 mm 3 m/s 730 mmHg 69%
    14:00 +18°C° 0.1 mm 3 m/s 730 mmHg 69%
    15:00 +18°C° 0.1 mm 3 m/s 730 mmHg 69%
    16:00 +18°C° 0.1 mm 2 m/s 730 mmHg 69%
    17:00 +17°C° 0.7 mm 2 m/s 730 mmHg 73%
    18:00 +17°C° 0.7 mm 2 m/s 730 mmHg 77%
    19:00 +16°C° 0.7 mm 1 m/s 730 mmHg 81%
    20:00 +15°C° 0.1 mm 1 m/s 730 mmHg 82%
    21:00 +14°C° 0.1 mm 1 m/s 731 mmHg 83%
    22:00 +14°C° 0.1 mm 1 m/s 731 mmHg 84%
    23:00 +13°C° 0.1 mm 1 m/s 731 mmHg 86%

    22 Mai, Miercuri

    Timp Temperatura Precipitaţii Vânt Presiune Umiditate
    00:00 +13°C° 0.1 mm 1 m/s 731 mmHg 88%
    01:00 +13°C° 0.1 mm 1 m/s 731 mmHg 90%
    02:00 +13°C° 0.2 mm 1 m/s 731 mmHg 91%
    03:00 +13°C° 0.2 mm 1 m/s 731 mmHg 92%
    04:00 +12°C° 0.2 mm 2 m/s 731 mmHg 92%
    05:00 +13°C° 0.1 mm 2 m/s 731 mmHg 90%
    06:00 +14°C° 0.1 mm 2 m/s 731 mmHg 88%
    07:00 +15°C° 0.1 mm 2 m/s 731 mmHg 85%
    08:00 +16°C° 0.2 mm 2 m/s 731 mmHg 81%
    09:00 +17°C° 0.2 mm 2 m/s 731 mmHg 76%
    10:00 +19°C° 0.2 mm 3 m/s 731 mmHg 71%
    11:00 +19°C° 1 mm 3 m/s 731 mmHg 72%
    12:00 +19°C° 1 mm 3 m/s 731 mmHg 72%
    13:00 +20°C° 1 mm 4 m/s 731 mmHg 72%
    14:00 +19°C° 0.7 mm 4 m/s 731 mmHg 74%
    15:00 +19°C° 0.7 mm 4 m/s 731 mmHg 77%
    16:00 +18°C° 0.7 mm 4 m/s 731 mmHg 79%
    17:00 +17°C° 0.6 mm 4 m/s 731 mmHg 83%
    18:00 +16°C° 0.6 mm 3 m/s 731 mmHg 87%
    19:00 +14°C° 0.6 mm 3 m/s 731 mmHg 91%
    20:00 +14°C° 0.2 mm 3 m/s 732 mmHg 92%
    21:00 +13°C° 0.2 mm 4 m/s 732 mmHg 94%
    22:00 +13°C° 0.2 mm 4 m/s 732 mmHg 95%
    23:00 +12°C° 0.1 mm 4 m/s 732 mmHg 95%

    23 Mai, Joi

    Timp Temperatura Precipitaţii Vânt Presiune Umiditate
    00:00 +12°C° 0.1 mm 4 m/s 732 mmHg 94%
    01:00 +12°C° 0.1 mm 4 m/s 732 mmHg 94%
    02:00 +11°C° 0 mm 3 m/s 732 mmHg 94%
    03:00 +11°C° 0 mm 3 m/s 732 mmHg 95%
    04:00 +11°C° 0 mm 3 m/s 732 mmHg 95%
    05:00 +12°C° 0 mm 3 m/s 732 mmHg 93%
    06:00 +12°C° 0 mm 3 m/s 733 mmHg 91%
    07:00 +13°C° 0 mm 4 m/s 733 mmHg 89%
    08:00 +14°C° 0.3 mm 3 m/s 733 mmHg 89%
    09:00 +14°C° 0.3 mm 3 m/s 733 mmHg 89%
    10:00 +14°C° 0.3 mm 3 m/s 734 mmHg 90%
    11:00 +14°C° 0.6 mm 4 m/s 734 mmHg 89%
    12:00 +15°C° 0.6 mm 5 m/s 734 mmHg 89%
    13:00 +15°C° 0.6 mm 6 m/s 734 mmHg 88%
    14:00 +14°C° 0.4 mm 6 m/s 734 mmHg 90%
    15:00 +13°C° 0.4 mm 6 m/s 734 mmHg 91%
    16:00 +11°C° 0.4 mm 6 m/s 734 mmHg 92%
    17:00 +10°C° 0.3 mm 6 m/s 734 mmHg 93%
    18:00 +10°C° 0.3 mm 6 m/s 734 mmHg 93%
    19:00 +10°C° 0.3 mm 5 m/s 735 mmHg 93%
    20:00 +10°C° 0.2 mm 5 m/s 735 mmHg 93%
    21:00 +11°C° 0.2 mm 4 m/s 735 mmHg 92%
    22:00 +11°C° 0.2 mm 4 m/s 736 mmHg 91%
    23:00 +10°C° 0 mm 4 m/s 736 mmHg 92%

    24 Mai, Vineri

    Timp Temperatura Precipitaţii Vânt Presiune Umiditate
    00:00 +10°C° 0 mm 3 m/s 736 mmHg 93%
    01:00 +9°C° 0 mm 3 m/s 735 mmHg 93%
    02:00 +9°C° 0 mm 3 m/s 736 mmHg 93%
    03:00 +9°C° 0 mm 2 m/s 736 mmHg 93%
    04:00 +9°C° 0 mm 2 m/s 736 mmHg 93%
    05:00 +10°C° 0 mm 2 m/s 736 mmHg 90%
    06:00 +12°C° 0 mm 2 m/s 736 mmHg 86%
    07:00 +13°C° 0 mm 2 m/s 736 mmHg 82%
    08:00 +14°C° 0 mm 2 m/s 735 mmHg 77%
    09:00 +15°C° 0 mm 2 m/s 735 mmHg 72%
    10:00 +16°C° 0 mm 2 m/s 734 mmHg 66%
    11:00 +16°C° 0 mm 2 m/s 734 mmHg 63%
    12:00 +17°C° 0 mm 2 m/s 733 mmHg 60%
    13:00 +19°C° 0 mm 1 m/s 733 mmHg 57%
    14:00 +19°C° 0 mm 1 m/s 732 mmHg 57%
    15:00 +19°C° 0 mm 1 m/s 732 mmHg 56%
    16:00 +20°C° 0 mm 1 m/s 731 mmHg 55%
    17:00 +18°C° 0 mm 1 m/s 731 mmHg 60%
    18:00 +16°C° 0 mm 1 m/s 731 mmHg 65%
    19:00 +15°C° 0 mm 1 m/s 730 mmHg 70%
    20:00 +14°C° 0 mm 1 m/s 730 mmHg 74%
    21:00 +11°C° 0 mm 0 m/s 730 mmHg 78%
    22:00 +10°C° 0 mm 0 m/s 730 mmHg 81%
    23:00 +11°C° 0 mm 1 m/s 729 mmHg 83%
    Arată mai mult